NQ9F Weather Reports


Display with metric or nautical units.
time (UTC)temp
F
wind
direction
speed
MPH
gust
MPH
rain 1hr
in
rain 24hr
in
rain mn
in
humidity
%
barometer
mb
20260509201033 86 115 5.0 7.0 0.00 0.01 0.01 48 1009.6
20260509200527 85 82 2.0 3.0 0.00 0.01 0.01 49 1009.7
20260509200025 85 63 4.0 8.0 0.00 0.01 0.01 49 1009.6
20260509195520 85 121 3.0 6.0 0.00 0.01 0.01 50 1009.8
20260509195020 84 133 4.0 9.0 0.00 0.01 0.01 49 1009.8
20260509194515 86 108 5.0 8.0 0.00 0.01 0.01 48 1009.9
20260509194013 85 178 0.0 6.0 0.00 0.01 0.01 51 1010.1
20260509193513 85 175 3.0 4.0 0.00 0.01 0.01 49 1010.1
20260509193010 85 115 2.0 4.0 0.00 0.01 0.01 53 1009.9
20260509192506 86 82 3.0 5.0 0.00 0.01 0.01 50 1010.3
20260509192001 84 209 2.0 4.0 0.00 0.01 0.01 51 1010.3
20260509191456 84 59 5.0 8.0 0.00 0.01 0.01 51 1010.3
20260509190952 84 239 2.0 5.0 0.00 0.01 0.01 52 1010.3
20260509190449 84 132 3.0 7.0 0.00 0.01 0.01 51 1010.3
20260509185947 85 72 7.0 8.0 0.00 0.01 0.01 52 1010.4
20260509185444 85 210 1.0 3.0 0.00 0.01 0.01 50 1010.4
20260509184940 84 295 2.0 3.0 0.00 0.01 0.01 51 1010.6
20260509184439 83 75 0.0 5.0 0.00 0.01 0.01 54 1010.6
20260509183935 85 49 5.0 6.0 0.00 0.01 0.01 51 1010.7
20260509183429 82 272 3.0 8.0 0.00 0.01 0.01 55 1010.7
20260509182926 83 2 5.0 7.0 0.00 0.01 0.01 54 1010.9
20260509182422 82 54 2.0 5.0 0.00 0.01 0.01 56 1010.7
20260509181920 82 9 5.0 9.0 0.00 0.01 0.01 57 1010.7
20260509181418 83 9 3.0 9.0 0.00 0.01 0.01 57 1011.0
20260509180914 83 8 4.0 6.0 0.00 0.01 0.01 59 1010.7
20260509180410 83 318 2.0 4.0 0.00 0.01 0.01 58 1010.8
20260509175907 82 351 4.0 13.0 0.00 0.01 0.01 59 1010.6
20260509175403 81 0 6.0 7.0 0.00 0.01 0.01 60 1010.8
20260509174859 81 1 2.0 4.0 0.00 0.01 0.01 60 1011.1
20260509174356 81 307 4.0 6.0 0.00 0.01 0.01 60 1011.1
20260509173851 80 283 6.0 9.0 0.00 0.01 0.01 58 1011.1
20260509173341 81 290 7.0 8.0 0.00 0.01 0.01 59 1011.0
20260509172838 80 333 3.0 6.0 0.00 0.01 0.01 61 1011.3
20260509172334 80 312 7.0 11.0 0.00 0.01 0.01 60 1011.0
20260509171830 80 335 4.0 10.0 0.00 0.01 0.01 60 1011.1
20260509171326 80 277 4.0 8.0 0.00 0.01 0.01 62 1011.2
20260509170823 80 281 5.0 7.0 0.00 0.01 0.01 62 1011.4
20260509170319 79 293 2.0 7.0 0.00 0.01 0.01 64 1011.2
20260509165818 78 288 7.0 9.0 0.00 0.01 0.01 63 1011.3
20260509165313 78 330 6.0 13.0 0.00 0.01 0.01 62 1011.3
20260509164809 78 313 9.0 9.0 0.00 0.01 0.01 63 1011.3
20260509164300 80 341 5.0 7.0 0.00 0.01 0.01 63 1011.3
20260509163756 78 299 5.0 9.0 0.00 0.01 0.01 65 1011.4
20260509163253 77 324 5.0 14.0 0.00 0.01 0.01 64 1011.7
20260509162751 77 292 11.0 14.0 0.00 0.01 0.01 65 1011.4
20260509162245 77 305 8.0 14.0 0.00 0.01 0.01 67 1011.4
20260509161742 77 315 5.0 11.0 0.00 0.01 0.01 65 1011.7
20260509161238 77 292 8.0 14.0 0.00 0.01 0.01 65 1011.7
20260509160733 77 296 10.0 15.0 0.00 0.01 0.01 66 1011.8
20260509160230 76 273 5.0 10.0 0.00 0.01 0.01 66 1011.5
20260509155724 76 317 8.0 13.0 0.00 0.01 0.01 67 1011.5
20260509155222 75 328 7.0 15.0 0.00 0.01 0.01 67 1011.5
20260509154718 75 314 13.0 14.0 0.00 0.01 0.01 70 1011.5
20260509154215 74 318 12.0 15.0 0.00 0.01 0.01 70 1011.5
20260509153712 75 327 10.0 14.0 0.00 0.01 0.01 70 1011.6
20260509153208 74 315 5.0 12.0 0.00 0.01 0.01 72 1011.6
20260509152704 74 341 7.0 9.0 0.00 0.01 0.01 70 1011.6
20260509152201 73 309 5.0 12.0 0.00 0.01 0.01 70 1011.7
20260509151658 73 335 4.0 11.0 0.00 0.01 0.01 71 1011.8
20260509151155 73 323 10.0 12.0 0.00 0.01 0.01 70 1011.7
20260509150653 73 311 9.0 11.0 0.00 0.01 0.01 72 1011.5
20260509150151 73 336 7.0 13.0 0.00 0.01 0.01 70 1011.4
20260509145647 73 346 8.0 9.0 0.00 0.01 0.01 70 1011.6
20260509145142 73 308 9.0 12.0 0.00 0.01 0.01 71 1011.5
20260509144639 72 317 12.0 14.0 0.00 0.01 0.01 70 1011.9
20260509144136 72 325 7.0 11.0 0.00 0.01 0.01 72 1011.6
20260509143633 72 325 3.0 11.0 0.00 0.01 0.01 73 1011.8
20260509143131 72 324 5.0 12.0 0.00 0.01 0.01 74 1011.6
20260509142626 71 326 4.0 9.0 0.00 0.01 0.01 77 1011.7
20260509142123 71 303 9.0 10.0 0.00 0.01 0.01 77 1011.6
20260509141619 70 336 3.0 12.0 0.00 0.01 0.01 77 1011.6
20260509141115 70 305 7.0 9.0 0.00 0.01 0.01 76 1011.7
20260509140612 70 294 5.0 10.0 0.00 0.01 0.01 77 1011.9
20260509140110 70 290 4.0 7.0 0.00 0.01 0.01 80 1011.8
20260509135607 69 298 6.0 8.0 0.00 0.01 0.01 83 1011.8
20260509135105 69 251 5.0 5.0 0.00 0.01 0.01 84 1011.8
20260509134601 68 277 2.0 4.0 0.00 0.01 0.01 86 1012.2
20260509134059 68 276 4.0 6.0 0.00 0.01 0.01 85 1012.1
20260509133556 68 255 4.0 8.0 0.00 0.01 0.01 86 1012.1
20260509133053 68 233 3.0 5.0 0.00 0.01 0.01 86 1011.9
20260509132552 67 216 3.0 6.0 0.00 0.01 0.01 87 1011.8
20260509132050 67 271 2.0 5.0 0.00 0.01 0.01 87 1011.6
20260509131545 66 273 3.0 6.0 0.00 0.01 0.01 88 1011.9
20260509131042 66 287 3.0 6.0 0.00 0.01 0.01 89 1011.9
20260509130538 66 307 4.0 4.0 0.00 0.01 0.01 89 1011.8
20260509130035 65 359 2.0 7.0 0.00 0.01 0.01 90 1011.6
20260509125531 65 334 3.0 5.0 0.00 0.01 0.01 89 1011.7
20260509125028 65 327 3.0 5.0 0.00 0.01 0.01 90 1011.7
20260509124519 65 321 3.0 5.0 0.00 0.01 0.01 89 1011.6
20260509124016 65 326 2.0 4.0 0.00 0.01 0.01 88 1011.8
20260509123514 64 326 2.0 4.0 0.00 0.01 0.01 89 1011.9
20260509123010 64 268 1.0 4.0 0.00 0.01 0.01 90 1011.5
20260509122507 64 282 3.0 5.0 0.00 0.01 0.01 90 1011.7
20260509122004 64 274 3.0 3.0 0.00 0.01 0.01 90 1011.6
20260509121500 64 307 2.0 3.0 0.00 0.01 0.01 90 1011.5
20260509120958 64 312 1.0 2.0 0.00 0.01 0.01 90 1011.5
20260509120456 64 315 2.0 3.0 0.00 0.01 0.01 90 1011.3
20260509115954 64 338 0.0 4.0 0.00 0.01 0.01 90 1011.3
20260509115451 63 279 1.0 2.0 0.00 0.01 0.01 90 1011.2
20260509114948 64 322 3.0 4.0 0.00 0.01 0.01 90 1010.9
20260509114446 64 344 2.0 5.0 0.00 0.01 0.01 90 1011.0
20260509113946 64 355 2.0 4.0 0.00 0.01 0.01 90 1010.9
20260509113442 64 8 2.0 5.0 0.00 0.01 0.01 90 1010.7
20260509112939 64 333 3.0 7.0 0.00 0.01 0.01 90 1010.6
20260509112437 64 322 3.0 6.0 0.00 0.01 0.01 90 1010.5
20260509111933 64 339 2.0 5.0 0.00 0.01 0.01 90 1010.4
20260509111430 64 310 3.0 5.0 0.00 0.01 0.01 90 1010.6
20260509110922 64 321 3.0 5.0 0.00 0.01 0.01 90 1010.3
20260509110418 64 301 4.0 6.0 0.00 0.01 0.01 89 1010.3
20260509105916 64 275 4.0 5.0 0.00 0.01 0.01 89 1010.4
20260509105415 65 314 5.0 6.0 0.00 0.01 0.01 89 1010.3
20260509104911 65 332 4.0 5.0 0.00 0.01 0.01 88 1010.2
20260509104408 66 347 3.0 5.0 0.00 0.01 0.01 87 1010.4
20260509103906 66 269 0.0 2.0 0.00 0.01 0.01 86 1010.6
20260509103402 66 280 0.0 2.0 0.00 0.01 0.01 87 1010.6
20260509102901 66 353 2.0 6.0 0.00 0.01 0.01 85 1010.8
20260509102358 66 305 2.0 6.0 0.00 0.01 0.01 84 1010.5
20260509101854 67 245 4.0 8.0 0.00 0.01 0.01 84 1010.7
20260509101350 67 21 0.0 4.0 0.00 0.01 0.01 83 1010.5
20260509100848 67 232 2.0 8.0 0.00 0.01 0.01 83 1010.8
20260509100344 68 238 7.0 8.0 0.00 0.01 0.01 82 1010.9
20260509095841 68 260 2.0 7.0 0.00 0.01 0.01 81 1010.6
20260509095339 68 194 8.0 16.0 0.00 0.01 0.01 82 1010.9
20260509094836 67 208 9.0 11.0 0.00 0.01 0.01 84 1010.4
20260509094332 68 195 3.0 3.0 0.00 0.01 0.01 81 1009.9
20260509093830 68 147 0.0 2.0 0.00 0.01 0.01 81 1009.8
20260509093327 68 131 1.0 2.0 0.00 0.01 0.01 81 1009.6
20260509092826 69 94 2.0 3.0 0.00 0.01 0.01 81 1009.4
20260509092323 69 24 4.0 6.0 0.00 0.01 0.01 80 1009.1
20260509091821 69 1 5.0 7.0 0.00 0.01 0.01 79 1009.1
20260509091318 69 8 5.0 7.0 0.00 0.01 0.01 78 1008.9
20260509090815 69 38 7.0 12.0 0.00 0.01 0.01 76 1008.3
20260509090312 70 49 7.0 9.0 0.00 0.01 0.01 75 1008.2
20260509085809 70 22 6.0 19.0 0.00 0.01 0.01 72 1008.0
20260509085307 71 27 5.0 16.0 0.00 0.01 0.01 66 1007.6
20260509084803 73 27 7.0 14.0 0.00 0.01 0.01 61 1007.5
20260509084300 71 1 21.0 21.0 0.00 0.01 0.01 61 1007.5
20260509083758 74 17 8.0 15.0 0.00 0.01 0.01 55 1007.1
20260509083254 75 189 5.0 9.0 0.00 0.01 0.01 47 1006.3
20260509082751 76 205 8.0 14.0 0.00 0.01 0.01 47 1006.5
20260509082247 75 183 4.0 16.0 0.00 0.01 0.01 50 1006.5
20260509081744 74 215 9.0 15.0 0.00 0.01 0.01 52 1006.7
20260509081242 73 207 7.0 9.0 0.00 0.01 0.01 58 1006.8
20260509080740 73 181 4.0 7.0 0.00 0.01 0.01 59 1006.9
20260509080237 73 191 3.0 7.0 0.00 0.01 0.01 57 1007.2
20260509075736 72 201 5.0 6.0 0.00 0.01 0.01 60 1007.3
20260509075233 71 201 9.0 10.0 0.00 0.01 0.01 62 1007.8
20260509074729 73 191 6.0 10.0 0.00 0.01 0.01 58 1008.2
20260509074227 72 198 6.0 10.0 0.00 0.01 0.01 62 1008.7
20260509073723 75 127 6.0 11.0 0.00 0.01 0.01 54 1008.8
20260509073220 68 146 6.0 8.0 0.00 0.01 0.01 73 1009.4
20260509072716 72 188 4.0 5.0 0.00 0.01 0.01 65 1009.7
20260509072213 72 54 3.0 10.0 0.00 0.01 0.01 65 1009.8
20260509071710 71 93 7.0 20.0 0.02 0.01 0.01 71 1010.0
20260509071207 70 155 4.0 8.0 0.02 0.01 0.01 75 1010.2
20260509070704 69 165 5.0 9.0 0.00 0.00 0.00 76 1010.4
20260509070200 68 191 5.0 10.0 0.02 0.00 0.00 81 1010.8
20260509065656 68 186 4.0 12.0 0.02 0.00 0.00 85 1011.0
20260509065153 68 195 8.0 13.0 0.00 0.00 0.00 88 1011.0
20260509064650 68 199 14.0 21.0 0.00 0.00 0.00 90 1011.3
20260509064147 69 181 5.0 14.0 0.00 0.00 0.00 93 1011.1
20260509063644 68 202 4.0 13.0 0.00 0.00 0.00 94 1011.2
20260509063140 68 199 5.0 14.0 0.00 0.00 0.00 94 1011.5
20260509062638 68 190 7.0 10.0 0.00 0.00 0.00 95 1011.7
20260509062135 68 207 9.0 15.0 0.00 0.00 0.00 96 1011.8
20260509061631 68 245 8.0 14.0 0.00 0.00 0.00 97 1012.5
20260509061129 68 232 9.0 10.0 0.00 0.00 0.00 97 1012.4
20260509060627 68 225 4.0 9.0 0.00 0.00 0.00 97 1012.2
20260509060122 67 263 4.0 6.0 0.00 0.00 0.00 97 1012.6
20260509055618 67 280 3.0 8.0 0.00 0.00 0.00 97 1013.0
20260509055114 67 286 2.0 7.0 0.00 0.00 0.00 97 1012.9
20260509054611 67 300 5.0 5.0 0.00 0.00 0.00 97 1012.8
20260509054109 67 222 5.0 8.0 0.00 0.00 0.00 97 1012.4
20260509053607 68 251 5.0 6.0 0.00 0.00 0.00 96 1012.3
20260509053104 68 202 0.0 2.0 0.00 0.00 0.00 96 1012.1
20260509052602 68 180 2.0 5.0 0.00 0.00 0.00 96 1011.8
20260509052059 68 174 3.0 4.0 0.00 0.00 0.00 96 1012.1
20260509051557 68 310 0.0 3.0 0.00 0.00 0.00 95 1012.3
20260509051054 68 349 0.0 3.0 0.00 0.00 0.00 95 1012.3
20260509050550 68 21 5.0 15.0 0.00 0.00 0.00 96 1012.8
20260509050047 68 23 4.0 13.0 0.00 0.00 0.00 96 1012.9
20260509045545 67 11 8.0 11.0 0.00 0.15 0.15 96 1012.5
20260509045041 68 12 5.0 10.0 0.00 0.15 0.15 96 1012.3
20260509044539 69 357 5.0 8.0 0.00 0.15 0.15 94 1012.1
20260509044036 69 22 2.0 4.0 0.00 0.15 0.15 94 1011.6
20260509043532 69 144 8.0 8.0 0.00 0.15 0.15 94 1011.2
20260509043028 69 158 8.0 10.0 0.00 0.15 0.15 94 1010.7
20260509042524 69 161 5.0 9.0 0.00 0.15 0.15 94 1010.8
20260509042021 69 149 9.0 12.0 0.00 0.15 0.15 94 1010.7
20260509041517 69 155 11.0 15.0 0.00 0.15 0.15 94 1010.5
20260509041014 68 157 5.0 12.0 0.00 0.15 0.15 94 1010.0
20260509040513 69 165 4.0 11.0 0.00 0.15 0.15 94 1010.3
20260509040005 69 139 4.0 8.0 0.00 0.15 0.15 94 1010.5
20260509035501 69 137 3.0 8.0 0.00 0.15 0.15 93 1010.5
20260509034957 69 140 5.0 9.0 0.00 0.15 0.15 93 1010.3
20260509034456 69 137 5.0 9.0 0.00 0.15 0.15 93 1010.4
20260509033952 69 108 3.0 12.0 0.00 0.15 0.15 93 1010.5
20260509033449 69 117 5.0 10.0 0.00 0.15 0.15 94 1010.4
20260509032946 69 82 6.0 10.0 0.00 0.15 0.15 93 1010.4
20260509032443 69 79 7.0 10.0 0.00 0.15 0.15 93 1010.3
20260509031941 69 121 7.0 9.0 0.00 0.15 0.15 92 1010.0
20260509031438 69 117 8.0 10.0 0.00 0.15 0.15 92 1009.9
20260509030935 69 124 3.0 11.0 0.00 0.15 0.15 91 1009.8
20260509030433 70 139 5.0 12.0 0.00 0.15 0.15 91 1009.3
20260509025930 70 138 8.0 16.0 0.00 0.15 0.15 91 1009.3
20260509025426 70 150 7.0 12.0 0.00 0.15 0.15 91 1009.3
20260509024921 70 148 7.0 11.0 0.00 0.15 0.15 91 1009.0
20260509024417 70 157 5.0 9.0 0.00 0.15 0.15 90 1009.0
20260509023914 70 157 8.0 10.0 0.00 0.15 0.15 90 1009.1
20260509023412 70 152 11.0 14.0 0.00 0.15 0.15 90 1008.7
20260509022908 70 162 9.0 17.0 0.00 0.15 0.15 90 1008.2
20260509022405 70 154 14.0 18.0 0.00 0.15 0.15 90 1008.1
20260509021903 70 153 11.0 14.0 0.00 0.15 0.15 89 1008.0
20260509021400 70 166 10.0 15.0 0.00 0.15 0.15 89 1007.9
20260509020857 70 157 11.0 18.0 0.00 0.15 0.15 89 1008.1
20260509020355 70 168 9.0 17.0 0.00 0.15 0.15 89 1007.6
20260509015852 70 167 6.0 15.0 0.00 0.15 0.15 88 1007.5
20260509015350 70 150 6.0 16.0 0.00 0.15 0.15 88 1007.7
20260509014847 71 158 9.0 16.0 0.00 0.15 0.15 88 1008.0
20260509014344 71 178 9.0 14.0 0.00 0.15 0.15 88 1008.2
20260509013840 71 148 7.0 13.0 0.00 0.15 0.15 88 1008.3
20260509013337 71 146 10.0 13.0 0.00 0.15 0.15 87 1008.3
20260509012832 71 151 7.0 10.0 0.00 0.15 0.15 87 1008.7
20260509012329 71 142 11.0 13.0 0.00 0.15 0.15 86 1008.7
20260509011827 71 167 9.0 9.0 0.00 0.15 0.15 87 1008.7
20260509011324 72 151 6.0 9.0 0.00 0.15 0.15 86 1008.9
20260509010822 72 151 7.0 9.0 0.00 0.15 0.15 85 1008.9
20260509010319 72 146 5.0 9.0 0.00 0.15 0.15 85 1008.6
20260509005816 72 144 3.0 9.0 0.00 0.15 0.15 85 1008.2
20260509005314 73 153 9.0 10.0 0.00 0.15 0.15 84 1008.6
20260509004813 73 137 8.0 10.0 0.00 0.15 0.15 83 1008.7
20260509004305 73 161 1.0 9.0 0.00 0.15 0.15 83 1008.5
20260509003803 73 147 6.0 10.0 0.00 0.15 0.15 83 1008.7
20260509003301 73 177 6.0 9.0 0.00 0.15 0.15 83 1008.3
20260509002757 73 157 9.0 12.0 0.00 0.15 0.15 82 1008.2
20260509002255 73 163 9.0 13.0 0.00 0.15 0.15 82 1008.1
20260509001752 74 156 5.0 9.0 0.00 0.15 0.15 82 1008.0
20260509001248 74 151 4.0 7.0 0.00 0.15 0.15 82 1008.1
20260509000746 74 145 11.0 14.0 0.00 0.15 0.15 81 1008.1
20260509000243 73 166 7.0 12.0 0.00 0.15 0.15 82 1008.1
20260508235739 74 156 4.0 13.0 0.00 0.15 0.15 81 1008.2
20260508235230 74 191 6.0 13.0 0.00 0.15 0.15 81 1008.1
20260508234727 74 179 6.0 14.0 0.00 0.15 0.15 80 1008.2
20260508234224 74 181 10.0 12.0 0.00 0.15 0.15 80 1008.6
20260508233718 74 176 6.0 12.0 0.00 0.15 0.15 80 1008.5
20260508233216 74 177 7.0 12.0 0.00 0.15 0.15 79 1008.5
20260508232713 73 191 4.0 12.0 0.00 0.15 0.15 80 1008.7
20260508232209 74 166 12.0 12.0 0.00 0.15 0.15 78 1008.8
20260508231707 74 161 12.0 12.0 0.00 0.15 0.15 78 1008.8
20260508231203 74 173 5.0 13.0 0.00 0.15 0.15 78 1008.8
20260508230655 74 147 9.0 12.0 0.00 0.15 0.15 78 1008.9
20260508230151 74 152 8.0 16.0 0.00 0.15 0.15 78 1008.8
20260508225649 74 188 6.0 13.0 0.00 0.15 0.15 78 1008.9
20260508225145 73 144 9.0 15.0 0.00 0.15 0.15 79 1008.8
20260508224643 73 151 6.0 10.0 0.00 0.15 0.15 79 1008.8
20260508224140 74 144 9.0 15.0 0.00 0.15 0.15 77 1008.9
20260508223638 74 164 5.0 12.0 0.00 0.15 0.15 77 1008.8
20260508223135 74 192 5.0 12.0 0.00 0.15 0.15 76 1008.6
20260508222632 74 153 10.0 18.0 0.00 0.15 0.15 76 1008.7
20260508222129 74 156 11.0 18.0 0.00 0.15 0.15 76 1008.9
20260508221625 74 153 5.0 15.0 0.00 0.15 0.15 76 1008.6
20260508221121 74 156 15.0 16.0 0.00 0.15 0.15 75 1008.8
20260508220618 74 156 9.0 20.0 0.00 0.15 0.15 75 1008.8
20260508220115 74 166 14.0 18.0 0.00 0.15 0.15 74 1008.7
20260508215611 75 146 14.0 16.0 0.00 0.15 0.15 73 1008.8
20260508215108 75 158 11.0 16.0 0.00 0.15 0.15 74 1008.8
20260508214605 74 136 13.0 19.0 0.00 0.15 0.15 74 1008.6
20260508214102 75 144 11.0 21.0 0.00 0.15 0.15 73 1008.7
20260508213559 74 161 7.0 16.0 0.00 0.15 0.15 74 1008.7
20260508213055 75 172 13.0 20.0 0.00 0.15 0.15 74 1008.9
20260508212551 74 158 5.0 15.0 0.00 0.15 0.15 74 1008.9
20260508212048 75 146 19.0 19.0 0.00 0.15 0.15 72 1008.9
20260508211543 74 160 7.0 20.0 0.00 0.15 0.15 74 1008.9
20260508211040 75 169 11.0 12.0 0.00 0.15 0.15 73 1009.1
20260508210536 73 140 8.0 17.0 0.00 0.15 0.15 74 1009.4
20260508210034 74 154 13.0 16.0 0.00 0.15 0.15 73 1009.1
20260508205531 74 155 3.0 15.0 0.00 0.15 0.15 75 1009.4
20260508205027 73 161 9.0 19.0 0.00 0.15 0.15 75 1009.4
20260508204524 73 151 12.0 14.0 0.00 0.15 0.15 73 1009.6
20260508204020 73 141 5.0 15.0 0.00 0.15 0.15 74 1009.8
20260508203516 73 97 5.0 15.0 0.00 0.15 0.15 74 1009.9
20260508203012 74 167 7.0 9.0 0.00 0.15 0.15 73 1009.7
20260508202509 73 174 9.0 15.0 0.00 0.15 0.15 74 1009.8
20260508202006 72 156 8.0 16.0 0.00 0.15 0.15 75 1009.9
20260508201503 72 154 10.0 15.0 0.00 0.15 0.15 74 1010.3